EA3ANS-1 Catalonia ES current weather conditions

sailwx.info

Wind from 357 at 6 knots gusting 5

Air temperature 5.6° C
Dewpoint 4.4° C

Last reported at 2020-Jan-27 07:45 UTC.
Time now 2020-Jan-27 08:30 UTC

Location: N 41°33' E 001°54'.
View on Google Maps.

See reports from other nearby stations

  
Tides and Currents Weather Stations Pressure Air Temp Water Temp Dewpoint Dewpoint Depression Visibility Wind Speed Wind Dir Waves Ship Positions
date/time (UTC)wind fromknots sea level pressurealtimeterstation pressurevisibilityair tempwater tempwave heightnotes
2020-Jan-27 08:06 015 5 gusting 4 5.6
2020-Jan-27 07:45 357 6 gusting 5 5.6
2020-Jan-27 07:35 352 4 gusting 4 5.0
2020-Jan-27 07:25 342 4 gusting 4 5.0
2020-Jan-27 07:15 236 6 gusting 6 5.0
2020-Jan-27 07:05 359 3 gusting 4 5.0
2020-Jan-27 06:55 006 5.0
2020-Jan-27 06:45 319 3 gusting 2 5.0
2020-Jan-27 06:35 316 5 gusting 3 5.0
2020-Jan-27 06:25 338 2 gusting 4 5.0
2020-Jan-27 06:15 298 4 gusting 3 5.0
2020-Jan-27 06:06 302 6 gusting 6 5.0
2020-Jan-27 05:56 353 5 gusting 1 5.0
2020-Jan-27 05:46 339 1 gusting 2 4.4
2020-Jan-27 05:35 201 1 gusting 1 4.4
2020-Jan-27 05:25 356 4.4
2020-Jan-27 05:15 155 1 4.4
2020-Jan-27 05:05 250 1 gusting 0 4.4
2020-Jan-27 04:55 326 0 gusting 0 4.4
2020-Jan-27 04:45 025 0 4.4
2020-Jan-27 04:35 307 1 gusting 2 5.0
2020-Jan-27 04:25 003 3 gusting 4 5.0
2020-Jan-27 04:15 017 5.0
2020-Jan-27 04:05 017 5.0
2020-Jan-27 03:55 103 5.0
2020-Jan-27 03:45 084 5.0
2020-Jan-27 03:35 176 5.0
2020-Jan-27 03:25 146 1 gusting 1 5.6
2020-Jan-27 03:15 356 2 gusting 0 5.6
2020-Jan-27 03:05 300 5.0
2020-Jan-27 02:55 300 5.0
2020-Jan-27 02:45 300 5.6
2020-Jan-27 02:35 300 5.6
2020-Jan-27 02:25 300 5.6
2020-Jan-27 02:15 300 5.6
2020-Jan-27 02:05 300 6.1
2020-Jan-27 01:55 300 6.1
2020-Jan-27 01:45 300 6.1
2020-Jan-27 01:35 300 6.1
2020-Jan-27 01:25 300 6.1
2020-Jan-27 01:15 300 6.1
2020-Jan-27 01:05 300 6.7
2020-Jan-27 00:55 300 6.7
2020-Jan-27 00:45 300 7.2
2020-Jan-27 00:35 300 7.2
2020-Jan-27 00:25 288 1 gusting 1 7.2
2020-Jan-27 00:15 011 7.8
2020-Jan-27 00:05 010 7.8
2020-Jan-26 23:55 008 0 gusting 1 7.8
2020-Jan-26 23:45 8.3
2020-Jan-26 23:35 352 8.3
2020-Jan-26 23:25 352 8.3
2020-Jan-26 23:15 352 8.3
2020-Jan-26 23:05 352 8.3
2020-Jan-26 22:55 301 8.3
2020-Jan-26 22:45 301 8.3
2020-Jan-26 22:35 301 8.9
2020-Jan-26 22:25 301 0 gusting 0 8.9
2020-Jan-26 22:15 032 9.4
2020-Jan-26 22:05 226 2 gusting 1 9.4
2020-Jan-26 21:55 249 0 gusting 0 9.4
2020-Jan-26 21:45 195 9.4
2020-Jan-26 21:35 195 10.0
2020-Jan-26 21:25 195 10.0
2020-Jan-26 21:15 195 10.0
2020-Jan-26 21:05 195 10.0
2020-Jan-26 20:55 195 10.0
2020-Jan-26 20:45 195 10.0
2020-Jan-26 20:35 284 10.6
2020-Jan-26 20:25 284 10.0
2020-Jan-26 20:15 284 10.6
2020-Jan-26 20:05 284 10.0
2020-Jan-26 19:55 284 10.0
2020-Jan-26 19:45 284 10.6
2020-Jan-26 19:35 284 10.6
2020-Jan-26 19:25 284 11.1
2020-Jan-26 19:15 284 11.1
2020-Jan-26 19:05 007 11.7
2020-Jan-26 18:55 117 11.7
2020-Jan-26 18:45 115 11.7
2020-Jan-26 18:35 132 3 gusting 1 11.7
2020-Jan-26 18:25 326 11.7
2020-Jan-26 18:15 326 11.7
2020-Jan-26 18:05 349 0 gusting 0 11.7
2020-Jan-26 17:55 297 1 gusting 2 11.7
2020-Jan-26 17:45 304 2 gusting 1 12.2
2020-Jan-26 17:35 280 1 gusting 1 12.2
2020-Jan-26 17:25 330 4 gusting 3 12.2
2020-Jan-26 17:15 335 3 gusting 2 12.8
2020-Jan-26 17:05 307 2 gusting 2 12.8
2020-Jan-26 16:55 042 3 gusting 2 12.8
2020-Jan-26 16:45 333 3 gusting 3 13.3
2020-Jan-26 16:35 300 4 gusting 6 13.3
2020-Jan-26 16:25 359 5 gusting 4 13.9
2020-Jan-26 16:15 349 6 gusting 5 13.9
2020-Jan-26 16:05 335 5 gusting 5 13.9
2020-Jan-26 15:55 347 4 gusting 6 13.9
2020-Jan-26 15:45 300 4 gusting 5 14.4
2020-Jan-26 15:35 309 6 gusting 7 14.4
2020-Jan-26 15:25 329 8 gusting 6 14.4
2020-Jan-26 15:15 359 4 gusting 2 14.4
2020-Jan-26 15:05 309 4 gusting 10 14.4
2020-Jan-26 14:55 003 5 gusting 5 14.4
2020-Jan-26 14:45 311 6 gusting 6 14.4
2020-Jan-26 14:35 302 5 gusting 5 14.4
2020-Jan-26 14:25 305 4 gusting 7 14.4
2020-Jan-26 14:14 345 4 gusting 6 14.4
2020-Jan-26 14:04 325 3 gusting 6 14.4
2020-Jan-26 13:55 325 6 gusting 6 13.9
2020-Jan-26 13:45 001 6 gusting 5 14.4
2020-Jan-26 13:35 273 3 gusting 3 14.4
2020-Jan-26 13:25 321 3 gusting 4 15.0
2020-Jan-26 13:14 302 4 gusting 1 15.0
2020-Jan-26 13:04 312 5 gusting 2 15.0
2020-Jan-26 12:54 037 5 gusting 0 15.0
2020-Jan-26 12:44 318 3 gusting 3 14.4
2020-Jan-26 12:34 336 5 gusting 8 15.0
2020-Jan-26 12:24 323 6 gusting 7 14.4
2020-Jan-26 12:14 338 6 gusting 5 14.4
2020-Jan-26 12:04 336 5 gusting 4 14.4
2020-Jan-26 11:54 297 4 gusting 8 13.9
2020-Jan-26 11:44 315 5 gusting 1 13.3
2020-Jan-26 11:34 13.3
2020-Jan-26 11:24 359 3 gusting 2 12.8
2020-Jan-26 11:14 338 1 gusting 3 12.2
2020-Jan-26 11:04 308 6 gusting 6 11.7
2020-Jan-26 10:54 307 5 gusting 3 11.1
2020-Jan-26 10:44 325 5 gusting 4 11.1
2020-Jan-26 10:34 329 6 gusting 5 10.6
2020-Jan-26 10:24 312 6 gusting 5 10.0
2020-Jan-26 10:14 015 5 gusting 4 9.4
2020-Jan-26 10:04 347 5 gusting 6 9.4
2020-Jan-26 09:54 325 6 gusting 6 8.9
2020-Jan-26 09:44 316 5 gusting 4 8.9
2020-Jan-26 09:34 297 6 gusting 6 8.3
2020-Jan-26 09:24 326 4 gusting 6 7.8
2020-Jan-26 09:14 338 8 gusting 6 7.8
2020-Jan-26 09:04 349 5 gusting 6 7.2
2020-Jan-26 08:54 330 6 gusting 8 7.2
2020-Jan-26 08:44 287 5 gusting 6 6.7
2020-Jan-26 08:34 278 2 gusting 5 6.7
2020-Jan-26 08:24 323 6 gusting 6 6.7
2020-Jan-26 08:14 007 7 gusting 2 6.7
2020-Jan-26 08:04 295 6 gusting 4 6.1
2020-Jan-26 07:54 304 6 gusting 2 6.1
2020-Jan-26 07:44 316 4 gusting 3 6.1
2020-Jan-26 07:34 283 4 gusting 4 6.1
2020-Jan-26 07:24 328 6 gusting 8 6.1
2020-Jan-26 07:14 027 3 gusting 1 6.1
2020-Jan-26 07:04 311 6 gusting 9 6.1
2020-Jan-26 06:54 277 3 gusting 4 6.1
2020-Jan-26 06:44 336 5 gusting 5 6.1
2020-Jan-26 06:34 328 4 gusting 3 6.1
2020-Jan-26 06:24 264 2 gusting 4 6.1
2020-Jan-26 06:14 325 3 gusting 5 6.7
2020-Jan-26 06:04 332 3 gusting 5 6.7
2020-Jan-26 05:54 316 4 gusting 7 6.7
2020-Jan-26 05:44 319 7 gusting 4 6.7
2020-Jan-26 05:34 293 4 gusting 6 6.7
2020-Jan-26 05:24 318 4 gusting 6 6.7
2020-Jan-26 05:14 304 5 gusting 4 6.7
2020-Jan-26 05:04 312 5 gusting 4 6.7
2020-Jan-26 04:54 335 3 gusting 2 6.7
2020-Jan-26 04:44 278 1 gusting 1 6.7
2020-Jan-26 04:34 304 3 gusting 4 6.7
2020-Jan-26 04:24 270 4 gusting 3 6.7
2020-Jan-26 04:14 270 3 gusting 1 6.7
2020-Jan-26 04:04 277 3 gusting 1 7.2
2020-Jan-26 03:54 328 5 gusting 3 7.2
2020-Jan-26 03:44 285 5 gusting 1 7.2
2020-Jan-26 03:34 325 6 gusting 4 7.2
2020-Jan-26 03:24 312 6 gusting 3 7.2
2020-Jan-26 03:14 305 6 gusting 6 7.8
2020-Jan-26 03:04 304 5 gusting 6 7.8
2020-Jan-26 02:54 302 5 gusting 6 7.8
2020-Jan-26 02:44 297 6 gusting 5 7.8
2020-Jan-26 02:34 309 3 gusting 3 7.8
2020-Jan-26 02:24 290 2 gusting 4 8.3
2020-Jan-26 02:14 323 4 gusting 1 8.3
2020-Jan-26 02:04 343 2 gusting 3 8.3
2020-Jan-26 01:54 316 6 gusting 4 8.3
2020-Jan-26 01:44 325 3 gusting 2 8.3
2020-Jan-26 01:34 314 3 gusting 1 8.3
2020-Jan-26 01:24 297 3 gusting 4 8.3
2020-Jan-26 01:14 281 2 gusting 0 8.3
2020-Jan-26 01:04 031 8.3
2020-Jan-26 00:54 333 1 gusting 1 8.9
2020-Jan-26 00:44 329 2 gusting 1 8.9
2020-Jan-26 00:34 285 5 gusting 3 8.9
2020-Jan-26 00:24 343 4 gusting 3 8.9
2020-Jan-26 00:14 290 3 gusting 4 8.9
2020-Jan-26 00:04 340 2 gusting 5 8.9
2020-Jan-25 23:54 328 2 gusting 2 8.9
2020-Jan-25 23:44 013 2 gusting 1 8.9
2020-Jan-25 23:34 298 4 gusting 6 8.9
2020-Jan-25 23:24 308 1 gusting 3 8.9
2020-Jan-25 23:14 032 0 8.9
2020-Jan-25 23:04 052 1 gusting 1 8.9
2020-Jan-25 22:54 055 8.9
2020-Jan-25 22:44 055 8.9
2020-Jan-25 22:34 276 9.4
2020-Jan-25 22:24 332 3 gusting 4 9.4
2020-Jan-25 22:14 359 3 gusting 2 9.4
2020-Jan-25 22:04 335 4 gusting 3 9.4
2020-Jan-25 21:54 259 1 gusting 1 8.9
2020-Jan-25 21:44 314 2 gusting 1 8.9
2020-Jan-25 21:34 300 8.9
2020-Jan-25 21:24 308 1 gusting 1 8.9
2020-Jan-25 21:14 301 2 gusting 2 8.9
2020-Jan-25 21:04 326 1 gusting 1 9.4
2020-Jan-25 20:54 315 1 gusting 1 9.4
2020-Jan-25 20:44 290 1 gusting 2 9.4
2020-Jan-25 20:34 354 10.0
2020-Jan-25 20:23 316 0 gusting 0 10.0
2020-Jan-25 20:14 336 1 gusting 0 10.0
2020-Jan-25 20:03 304 0 10.0
2020-Jan-25 19:53 323 0 gusting 1 10.0
2020-Jan-25 19:43 329 10.0
2020-Jan-25 19:33 269 9.4
2020-Jan-25 19:23 353 9.4
2020-Jan-25 19:13 336 9.4
2020-Jan-25 19:04 342 1 gusting 2 9.4
2020-Jan-25 18:53 003 1 gusting 1 10.0
2020-Jan-25 18:43 339 10.0
2020-Jan-25 18:33 339 10.0
2020-Jan-25 18:23 339 10.0
2020-Jan-25 18:13 339 10.0
2020-Jan-25 18:03 339 10.6
2020-Jan-25 17:53 293 10.6
2020-Jan-25 17:43 293 10.6
2020-Jan-25 17:33 356 1 gusting 1 10.6
2020-Jan-25 17:23 342 1 gusting 0 10.6
2020-Jan-25 17:13 308 11.1
2020-Jan-25 17:03 055 11.1
2020-Jan-25 16:53 330 11.1
2020-Jan-25 16:43 297 11.1
2020-Jan-25 16:33 015 11.7
2020-Jan-25 16:23 028 11.7
2020-Jan-25 16:13 028 11.7
2020-Jan-25 16:03 028 11.7
2020-Jan-25 15:53 008 4 gusting 4 11.7
2020-Jan-25 15:43 066 1 11.7
2020-Jan-25 15:33 345 4 gusting 1 11.7
2020-Jan-25 15:23 321 4 gusting 4 11.7
2020-Jan-25 15:13 288 4 gusting 2 11.7
2020-Jan-25 15:03 336 3 gusting 2 11.7
2020-Jan-25 14:53 315 4 gusting 2 11.7
2020-Jan-25 14:43 010 4 gusting 4 11.7
2020-Jan-25 14:33 333 4 gusting 1 11.7
2020-Jan-25 14:23 325 2 gusting 6 11.1
2020-Jan-25 14:13 342 5 gusting 5 11.1
2020-Jan-25 14:03 339 4 gusting 7 11.1
2020-Jan-25 13:53 357 3 gusting 3 11.1
2020-Jan-25 13:43 326 5 gusting 6 11.7
2020-Jan-25 13:33 321 5 gusting 5 11.7
2020-Jan-25 13:23 349 3 gusting 3 11.7
2020-Jan-25 13:13 305 4 gusting 7 11.7
2020-Jan-25 13:03 325 7 gusting 10 11.1
2020-Jan-25 12:53 315 6 gusting 8 11.7
2020-Jan-25 12:43 357 7 gusting 4 11.7
2020-Jan-25 12:33 350 3 gusting 6 11.1
2020-Jan-25 12:23 305 5 gusting 8 10.6
2020-Jan-25 12:13 346 6 gusting 1 10.0
2020-Jan-25 12:03 359 6 gusting 4 9.4
2020-Jan-25 11:53 359 6 gusting 3 8.9
2020-Jan-25 11:43 335 5 gusting 6 8.3
2020-Jan-25 11:33 316 4 gusting 4 7.8
2020-Jan-25 11:23 339 4 gusting 2 7.8
2020-Jan-25 11:13 359 3 gusting 2 7.2
2020-Jan-25 11:03 359 2 gusting 4 7.2
2020-Jan-25 10:53 323 3 gusting 3 7.2
2020-Jan-25 10:43 267 2 gusting 1 7.2
2020-Jan-25 10:33 274 5 gusting 3 7.2
2020-Jan-25 10:23 328 1 gusting 2 7.2
2020-Jan-25 10:13 333 3 gusting 5 6.7
2020-Jan-25 10:03 338 5 gusting 4 6.7
2020-Jan-25 09:53 323 3 gusting 4 6.7
2020-Jan-25 09:43 329 2 gusting 4 6.7
2020-Jan-25 09:33 004 4 gusting 5 6.7
2020-Jan-25 09:23 307 4 gusting 3 6.7
2020-Jan-25 09:13 349 3 gusting 1 6.7
2020-Jan-25 09:03 357 4 gusting 1 7.2
2020-Jan-25 08:53 314 7.2
2020-Jan-25 08:43 314 6.7
2020-Jan-25 08:33 006 2 gusting 1 6.7
2020-Jan-25 08:23 297 0 gusting 0 6.7
2020-Jan-25 08:13 356 2 gusting 2 6.7
2020-Jan-25 08:03 336 2 gusting 0 6.7